"Period start","avg(HW err(1)/warn(2) (#))","avg(Visibility (m))","avg(Weather code (#))","avg(Precip intensity (mm/h))","min(HW err(1)/warn(2) (#))","max(HW err(1)/warn(2) (#))","std(HW err(1)/warn(2) (#))","med(HW err(1)/warn(2) (#))","min(Visibility (m))","max(Visibility (m))","std(Visibility (m))","med(Visibility (m))","min(Weather code (#))","max(Weather code (#))","std(Weather code (#))","med(Weather code (#))","min(Precip intensity (mm/h))","max(Precip intensity (mm/h))","std(Precip intensity (mm/h))","med(Precip intensity (mm/h))"
2016-09-01 00:00:00,1,45164,0,0.00,0,2,1,0,35405,50000,5468,48193,0,0,0,0,0.00,0.00,0.00,0.00
2016-09-01 00:10:00,0,42509,0,0.00,0,0,0,0,26511,50000,7058,43638,0,0,0,0,0.00,0.00,0.00,0.00
2016-09-01 00:20:00,0,31440,0,0.00,0,0,0,0,25348,42256,5307,32740,0,0,0,0,0.00,0.00,0.00,0.00
2016-09-01 00:30:00,0,31116,0,0.00,0,0,0,0,20600,41901,6574,32041,0,0,0,0,0.00,0.00,0.00,0.00
2016-09-01 00:40:00,0,38931,0,0.00,0,0,0,0,17706,50000,10903,39057,0,0,0,0,0.00,0.00,0.00,0.00
2016-09-01 00:50:00,0,34813,0,0.00,0,0,0,0,28081,43019,4467,33400,0,0,0,0,0.00,0.00,0.00,0.00
2016-09-01 01:00:00,0,37187,0,0.00,0,0,0,0,20039,50000,11838,38557,0,0,0,0,0.00,0.00,0.00,0.00
2016-09-01 01:10:00,0,35458,0,0.00,0,0,0,0,22351,50000,10127,35112,0,0,0,0,0.00,0.00,0.00,0.00
2016-09-01 01:20:00,0,36514,0,0.00,0,0,0,0,21129,50000,9707,39332,0,0,0,0,0.00,0.00,0.00,0.00
2016-09-01 01:30:00,0,36781,0,0.00,0,0,0,0,15437,50000,12335,41183,0,0,0,0,0.00,0.00,0.00,0.00
2016-09-01 01:40:00,0,40536,0,0.00,0,0,0,0,25200,50000,8161,40158,0,0,0,0,0.00,0.00,0.00,0.00
2016-09-01 01:50:00,0,35171,0,0.00,0,0,0,0,23549,46715,8393,39736,0,0,0,0,0.00,0.00,0.00,0.00
2016-09-01 02:00:00,0,41884,0,0.00,0,0,0,0,33316,50000,5870,39610,0,0,0,0,0.00,0.00,0.00,0.00
2016-09-01 02:10:00,0,43026,0,0.00,0,0,0,0,36569,50000,5186,41200,0,0,0,0,0.00,0.00,0.00,0.00
2016-09-01 02:20:00,0,42446,0,0.00,0,0,0,0,36579,50000,4267,41808,0,0,0,0,0.00,0.00,0.00,0.00
2016-09-01 02:30:00,0,44522,0,0.00,0,0,0,0,33616,50000,5258,46710,0,0,0,0,0.00,0.00,0.00,0.00
2016-09-01 02:40:00,0,47078,0,0.00,0,0,0,0,32311,50000,5360,49780,0,0,0,0,0.00,0.00,0.00,0.00
2016-09-01 02:50:00,0,44011,0,0.00,0,0,0,0,27715,50000,7390,47713,0,0,0,0,0.00,0.00,0.00,0.00
2016-09-01 03:00:00,0,34545,0,0.00,0,0,0,0,22623,43232,6712,36530,0,0,0,0,0.00,0.00,0.00,0.00
2016-09-01 03:10:00,0,43812,0,0.00,0,0,0,0,26035,50000,7036,45073,0,0,0,0,0.00,0.00,0.00,0.00
2016-09-01 03:20:00,0,42842,0,0.00,0,0,0,0,36366,50000,4881,42146,0,0,0,0,0.00,0.00,0.00,0.00
2016-09-01 03:30:00,0,44069,0,0.00,0,0,0,0,34969,50000,5067,44860,0,0,0,0,0.00,0.00,0.00,0.00
2016-09-01 03:40:00,0,43414,0,0.00,0,0,0,0,35863,50000,5840,43479,0,0,0,0,0.00,0.00,0.00,0.00
2016-09-01 03:50:00,0,44661,0,0.00,0,0,0,0,32459,50000,6555,49226,0,0,0,0,0.00,0.00,0.00,0.00
2016-09-01 04:00:00,0,43627,0,0.00,0,0,0,0,30188,50000,5809,44324,0,0,0,0,0.00,0.00,0.00,0.00
2016-09-01 04:10:00,0,46433,0,0.00,0,0,0,0,39854,50000,3615,47453,0,0,0,0,0.00,0.00,0.00,0.00
2016-09-01 04:20:00,0,49310,0,0.00,0,0,0,0,45415,50000,1414,50000,0,0,0,0,0.00,0.00,0.00,0.00
2016-09-01 04:30:00,0,45361,0,0.00,0,0,0,0,36342,50000,4435,45116,0,0,0,0,0.00,0.00,0.00,0.00
2016-09-01 04:40:00,0,45402,0,0.00,0,0,0,0,36240,50000,5053,47712,0,0,0,0,0.00,0.00,0.00,0.00
2016-09-01 04:50:00,0,44760,0,0.00,0,0,0,0,38068,50000,3541,45132,0,0,0,0,0.00,0.00,0.00,0.00
2016-09-01 05:00:00,0,48298,0,0.00,0,0,0,0,40351,50000,2902,49605,0,0,0,0,0.00,0.00,0.00,0.00
2016-09-01 05:10:00,0,47735,0,0.00,0,0,0,0,39024,50000,3738,50000,0,0,0,0,0.00,0.00,0.00,0.00
2016-09-01 05:20:00,0,49764,0,0.00,0,0,0,0,48395,50000,499,50000,0,0,0,0,0.00,0.00,0.00,0.00
2016-09-01 05:30:00,0,45650,0,0.00,0,0,0,0,34040,50000,5922,48634,0,0,0,0,0.00,0.00,0.00,0.00
2016-09-01 05:40:00,0,46910,0,0.00,0,0,0,0,41308,50000,2593,47006,0,0,0,0,0.00,0.00,0.00,0.00
2016-09-01 05:50:00,0,48732,0,0.00,0,0,0,0,43923,50000,2094,50000,0,0,0,0,0.00,0.00,0.00,0.00
2016-09-01 06:00:00,0,49892,0,0.00,0,0,0,0,49298,50000,228,50000,0,0,0,0,0.00,0.00,0.00,0.00
2016-09-01 06:10:00,0,45612,0,0.00,0,0,0,0,40479,50000,3299,45300,0,0,0,0,0.00,0.00,0.00,0.00
2016-09-01 06:20:00,0,47696,0,0.00,0,0,0,0,41926,50000,2425,48484,0,0,0,0,0.00,0.00,0.00,0.00
2016-09-01 06:30:00,0,48598,0,0.00,0,0,0,0,38448,50000,3300,50000,0,0,0,0,0.00,0.00,0.00,0.00
2016-09-01 06:40:00,0,47516,0,0.00,0,0,0,0,42971,50000,2640,48630,0,0,0,0,0.00,0.00,0.00,0.00
2016-09-01 06:50:00,0,47866,0,0.00,0,0,0,0,40156,50000,3302,50000,0,0,0,0,0.00,0.00,0.00,0.00
2016-09-01 07:00:00,0,48646,0,0.00,0,0,0,0,42175,50000,2417,50000,0,0,0,0,0.00,0.00,0.00,0.00
2016-09-01 07:10:00,0,48687,0,0.00,0,0,0,0,43751,50000,1942,49708,0,0,0,0,0.00,0.00,0.00,0.00
2016-09-01 07:20:00,0,45958,0,0.00,0,0,0,0,41447,49954,2608,46150,0,0,0,0,0.00,0.00,0.00,0.00
2016-09-01 07:30:00,0,46111,0,0.00,0,0,0,0,35442,50000,4495,47142,0,0,0,0,0.00,0.00,0.00,0.00
2016-09-01 07:40:00,0,48519,0,0.00,0,0,0,0,44962,50000,1901,49264,0,0,0,0,0.00,0.00,0.00,0.00
2016-09-01 07:50:00,0,48948,0,0.00,0,0,0,0,44683,50000,1930,50000,0,0,0,0,0.00,0.00,0.00,0.00
2016-09-01 08:00:00,0,48802,0,0.00,0,0,0,0,44927,50000,1909,50000,0,0,0,0,0.00,0.00,0.00,0.00
2016-09-01 08:10:00,0,47833,0,0.00,0,0,0,0,38608,50000,3509,50000,0,0,0,0,0.00,0.00,0.00,0.00
2016-09-01 08:20:00,0,48646,0,0.00,0,0,0,0,43227,50000,2104,50000,0,0,0,0,0.00,0.00,0.00,0.00
2016-09-01 08:30:00,0,47472,0,0.00,0,0,0,0,38723,50000,3863,50000,0,0,0,0,0.00,0.00,0.00,0.00
2016-09-01 08:40:00,0,49902,0,0.00,0,0,0,0,49289,50000,220,50000,0,0,0,0,0.00,0.00,0.00,0.00
2016-09-01 08:50:00,0,46829,0,0.00,0,0,0,0,40270,50000,3734,48926,0,0,0,0,0.00,0.00,0.00,0.00
2016-09-01 09:00:00,0,47732,0,0.00,0,0,0,0,42050,50000,2537,48353,0,0,0,0,0.00,0.00,0.00,0.00
2016-09-01 09:10:00,0,49858,0,0.00,0,0,0,0,48583,50000,425,50000,0,0,0,0,0.00,0.00,0.00,0.00
2016-09-01 09:20:00,0,50000,0,0.00,0,0,0,0,50000,50000,0,50000,0,0,0,0,0.00,0.00,0.00,0.00
2016-09-01 09:30:00,0,49752,0,0.00,0,0,0,0,48863,50000,422,50000,0,0,0,0,0.00,0.00,0.00,0.00
2016-09-01 09:40:00,0,49888,0,0.00,0,0,0,0,48881,50000,336,50000,0,0,0,0,0.00,0.00,0.00,0.00
2016-09-01 09:50:00,0,49750,0,0.00,0,0,0,0,48462,50000,517,50000,0,0,0,0,0.00,0.00,0.00,0.00
2016-09-01 10:00:00,0,49257,0,0.00,0,0,0,0,46625,50000,1314,50000,0,0,0,0,0.00,0.00,0.00,0.00
2016-09-01 10:10:00,0,48529,0,0.00,0,0,0,0,45316,50000,1460,48840,0,0,0,0,0.00,0.00,0.00,0.00
2016-09-01 10:20:00,0,49474,0,0.00,0,0,0,0,48022,50000,775,50000,0,0,0,0,0.00,0.00,0.00,0.00
2016-09-01 10:30:00,0,49009,0,0.00,0,0,0,0,46186,50000,1323,50000,0,0,0,0,0.00,0.00,0.00,0.00
2016-09-01 10:40:00,0,49928,0,0.00,0,0,0,0,49278,50000,217,50000,0,0,0,0,0.00,0.00,0.00,0.00
2016-09-01 10:50:00,0,50000,0,0.00,0,0,0,0,50000,50000,0,50000,0,0,0,0,0.00,0.00,0.00,0.00
2016-09-01 11:00:00,0,49998,0,0.00,0,0,0,0,49981,50000,6,50000,0,0,0,0,0.00,0.00,0.00,0.00
2016-09-01 11:10:00,0,49495,0,0.00,0,0,0,0,46630,50000,1078,50000,0,0,0,0,0.00,0.00,0.00,0.00
2016-09-01 11:20:00,0,49780,0,0.00,0,0,0,0,47799,50000,660,50000,0,0,0,0,0.00,0.00,0.00,0.00
2016-09-01 11:30:00,0,49806,0,0.00,0,0,0,0,48338,50000,496,50000,0,0,0,0,0.00,0.00,0.00,0.00
2016-09-01 11:40:00,0,49486,0,0.00,0,0,0,0,46731,50000,1001,50000,0,0,0,0,0.00,0.00,0.00,0.00
2016-09-01 11:50:00,0,49166,0,0.00,0,0,0,0,44330,50000,1661,49892,0,0,0,0,0.00,0.00,0.00,0.00
2016-09-01 12:00:00,0,48952,0,0.00,0,0,0,0,43255,50000,2089,50000,0,0,0,0,0.00,0.00,0.00,0.00
2016-09-01 12:10:00,0,49862,0,0.00,0,0,0,0,49093,50000,285,50000,0,0,0,0,0.00,0.00,0.00,0.00
2016-09-01 12:20:00,0,42209,0,0.00,0,0,0,0,28460,50000,6497,41998,0,0,0,0,0.00,0.00,0.00,0.00
2016-09-01 12:30:00,0,46498,0,0.00,0,0,0,0,41507,49100,2231,46634,0,0,0,0,0.00,0.00,0.00,0.00
2016-09-01 12:40:00,0,49253,0,0.00,0,0,0,0,48144,50000,640,49242,0,0,0,0,0.00,0.00,0.00,0.00
2016-09-01 12:50:00,0,40418,0,0.00,0,0,0,0,32924,50000,5848,37940,0,0,0,0,0.00,0.00,0.00,0.00
2016-09-01 13:00:00,0,46890,0,0.00,0,0,0,0,37917,50000,3708,48169,0,0,0,0,0.00,0.00,0.00,0.00
2016-09-01 13:10:00,0,34633,0,0.00,0,0,0,0,28099,39724,3786,34196,0,0,0,0,0.00,0.00,0.00,0.00
2016-09-01 13:20:00,0,37916,0,0.00,0,0,0,0,21295,49115,9732,39212,0,0,0,0,0.00,0.00,0.00,0.00
2016-09-01 13:30:00,0,31711,0,0.00,0,0,0,0,19770,49397,11880,26655,0,0,0,0,0.00,0.00,0.00,0.00
2016-09-01 13:40:00,0,48435,0,0.00,0,0,0,0,44786,50000,1919,49226,0,0,0,0,0.00,0.00,0.00,0.00
2016-09-01 13:50:00,0,47257,0,0.00,0,0,0,0,42204,50000,2727,47916,0,0,0,0,0.00,0.00,0.00,0.00
2016-09-01 14:00:00,0,46424,0,0.00,0,0,0,0,41672,50000,2806,46120,0,0,0,0,0.00,0.00,0.00,0.00
2016-09-01 14:10:00,0,40934,0,0.00,0,0,0,0,35726,47974,3835,39319,0,0,0,0,0.00,0.00,0.00,0.00
2016-09-01 14:20:00,0,37973,0,0.00,0,0,0,0,30311,43090,3970,39809,0,0,0,0,0.00,0.00,0.00,0.00
2016-09-01 14:30:00,0,45095,0,0.00,0,0,0,0,33808,50000,5036,45840,0,0,0,0,0.00,0.00,0.00,0.00
2016-09-01 14:40:00,0,40639,0,0.00,0,0,0,0,25537,50000,8172,39854,0,0,0,0,0.00,0.00,0.00,0.00
2016-09-01 14:50:00,0,17454,0,0.00,0,0,0,0,15047,21486,2226,16539,0,0,0,0,0.00,0.00,0.00,0.00
2016-09-01 15:00:00,0,16760,0,0.00,0,0,0,0,11349,27749,5428,14424,0,0,0,0,0.00,0.00,0.00,0.00
2016-09-01 15:10:00,0,10094,0,0.00,0,0,0,0,4679,14201,2874,9546,0,0,0,0,0.00,0.00,0.00,0.00
2016-09-01 15:20:00,0,16707,10,0.00,0,0,0,0,7535,22290,4365,17634,10,10,0,10,0.00,0.00,0.00,0.00
2016-09-01 15:30:00,0,29857,0,0.00,0,0,0,0,21065,36773,5347,31511,0,0,0,0,0.00,0.00,0.00,0.00
2016-09-01 15:40:00,0,21108,0,0.00,0,0,0,0,17118,26641,3218,20690,0,0,0,0,0.00,0.00,0.00,0.00
2016-09-01 15:50:00,0,19326,0,0.00,0,0,0,0,16222,24548,2767,19131,0,0,0,0,0.00,0.00,0.00,0.00
2016-09-01 16:00:00,0,26203,0,0.00,0,0,0,0,18209,32767,4730,26384,0,0,0,0,0.00,0.00,0.00,0.00
2016-09-01 16:10:00,0,21644,0,0.00,0,0,0,0,18070,26208,3195,19718,0,0,0,0,0.00,0.00,0.00,0.00
2016-09-01 16:20:00,0,24718,0,0.00,0,0,0,0,19904,32057,3523,23538,0,0,0,0,0.00,0.00,0.00,0.00
2016-09-01 16:30:00,0,16686,6,0.00,0,0,0,0,966,27679,10578,21150,0,10,5,10,0.00,0.00,0.00,0.00
2016-09-01 16:40:00,0,5129,10,0.00,0,0,0,0,1152,9043,2691,5229,10,10,0,10,0.00,0.00,0.00,0.00
2016-09-01 16:50:00,0,1127,19,0.00,0,0,0,0,253,3875,1279,454,10,34,11,10,0.00,0.00,0.00,0.00
2016-09-01 17:00:00,0,3870,34,0.00,0,0,0,0,260,8981,3052,3166,34,34,0,34,0.00,0.00,0.00,0.00
2016-09-01 17:10:00,1,10194,23,0.00,0,2,1,1,7614,12797,1340,10192,20,34,6,20,0.00,0.00,0.00,0.00
2016-09-01 17:20:00,2,12387,20,0.00,0,2,1,2,9059,16196,2131,12646,20,20,0,20,0.00,0.00,0.00,0.00
2016-09-01 17:30:00,1,6954,20,0.00,0,2,1,2,3011,11906,3270,6252,20,20,0,20,0.00,0.00,0.00,0.00
2016-09-01 17:40:00,2,5490,20,0.00,2,2,0,2,2811,7561,1487,5896,20,20,0,20,0.00,0.00,0.00,0.00
2016-09-01 17:50:00,2,5126,20,0.00,2,2,0,2,714,11205,3790,4094,20,20,0,20,0.00,0.00,0.00,0.00
2016-09-01 18:00:00,2,8329,20,0.00,2,2,0,2,3860,15063,3406,7138,20,20,0,20,0.00,0.00,0.00,0.00
2016-09-01 18:10:00,2,1710,12,0.00,2,2,0,2,709,5337,1352,1136,10,20,4,10,0.00,0.00,0.00,0.00
2016-09-01 18:20:00,2,13422,10,0.00,2,2,0,2,9945,18015,2458,12342,10,10,0,10,0.00,0.00,0.00,0.00
2016-09-01 18:30:00,2,12116,1,0.00,0,2,1,2,7027,16637,2826,11907,0,10,3,0,0.00,0.00,0.00,0.00
2016-09-01 18:40:00,1,10094,6,0.00,0,2,1,0,2153,20957,6141,9005,0,10,5,10,0.00,0.00,0.00,0.00
2016-09-01 18:50:00,1,20358,7,0.00,0,2,1,0,11929,28688,6711,20090,0,10,5,10,0.00,0.00,0.00,0.00
2016-09-01 19:00:00,0,44848,0,0.00,0,0,0,0,34983,50000,4830,45402,0,0,0,0,0.00,0.00,0.00,0.00
2016-09-01 19:10:00,0,14499,5,0.00,0,0,0,0,405,50000,17720,2432,0,10,5,5,0.00,0.00,0.00,0.00
2016-09-01 19:20:00,0,26248,10,0.00,0,0,0,0,6243,45593,10812,24158,10,10,0,10,0.00,0.00,0.00,0.00
2016-09-01 19:30:00,0,5525,14,0.00,0,0,0,0,253,20023,7573,730,0,34,14,10,0.00,0.00,0.00,0.00
2016-09-01 19:40:00,0,27281,33,0.00,0,0,0,0,1720,46202,14328,28636,30,34,2,34,0.00,0.00,0.00,0.00
2016-09-01 19:50:00,0,26604,22,0.00,0,0,0,0,20445,32998,4307,26414,20,30,4,20,0.00,0.00,0.00,0.00
2016-09-01 20:00:00,0,43629,20,0.00,0,0,0,0,30566,50000,6110,43703,20,20,0,20,0.00,0.00,0.00,0.00
2016-09-01 20:10:00,0,16806,20,0.00,0,0,0,0,3400,49698,15354,13238,20,20,0,20,0.00,0.00,0.00,0.00
2016-09-01 20:20:00,0,8311,20,0.00,0,0,0,0,886,27225,8753,3911,20,20,0,20,0.00,0.00,0.00,0.00
2016-09-01 20:30:00,0,26802,20,0.00,0,0,0,0,17246,38496,7040,26528,20,20,0,20,0.00,0.00,0.00,0.00
2016-09-01 20:40:00,0,23535,20,0.00,0,0,0,0,17510,31512,4836,21838,20,20,0,20,0.00,0.00,0.00,0.00
2016-09-01 20:50:00,0,42882,4,0.00,0,0,0,0,32781,50000,4751,43335,0,20,8,0,0.00,0.00,0.00,0.00
2016-09-01 21:00:00,0,39416,0,0.00,0,0,0,0,32273,48269,5494,39606,0,0,0,0,0.00,0.00,0.00,0.00
2016-09-01 21:10:00,0,48228,0,0.00,0,0,0,0,45216,50000,1632,48576,0,0,0,0,0.00,0.00,0.00,0.00
2016-09-01 21:20:00,0,44692,0,0.00,0,0,0,0,28106,50000,8322,50000,0,0,0,0,0.00,0.00,0.00,0.00
2016-09-01 21:30:00,0,27818,0,0.00,0,0,0,0,13391,41269,9720,30075,0,0,0,0,0.00,0.00,0.00,0.00
2016-09-01 21:40:00,0,32186,0,0.00,0,0,0,0,19117,44625,8332,29096,0,0,0,0,0.00,0.00,0.00,0.00
2016-09-01 21:50:00,0,45891,0,0.00,0,0,0,0,37795,50000,4228,47539,0,0,0,0,0.00,0.00,0.00,0.00
2016-09-01 22:00:00,0,46149,0,0.00,0,0,0,0,37957,50000,4138,47369,0,0,0,0,0.00,0.00,0.00,0.00
2016-09-01 22:10:00,0,41657,0,0.00,0,0,0,0,31712,50000,5320,40974,0,0,0,0,0.00,0.00,0.00,0.00
2016-09-01 22:20:00,0,40250,0,0.00,0,0,0,0,28781,50000,7020,39409,0,0,0,0,0.00,0.00,0.00,0.00
2016-09-01 22:30:00,0,45450,0,0.00,0,0,0,0,41060,49135,2749,45972,0,0,0,0,0.00,0.00,0.00,0.00
2016-09-01 22:40:00,0,45444,0,0.00,0,0,0,0,29448,50000,7124,49576,0,0,0,0,0.00,0.00,0.00,0.00
2016-09-01 22:50:00,0,42573,0,0.00,0,0,0,0,35953,49012,4410,43796,0,0,0,0,0.00,0.00,0.00,0.00
2016-09-01 23:00:00,0,45092,0,0.00,0,0,0,0,37650,50000,4057,45182,0,0,0,0,0.00,0.00,0.00,0.00
2016-09-01 23:10:00,0,48120,0,0.00,0,0,0,0,43025,50000,2164,48564,0,0,0,0,0.00,0.00,0.00,0.00
2016-09-01 23:20:00,0,39500,0,0.00,0,0,0,0,31436,50000,5933,38718,0,0,0,0,0.00,0.00,0.00,0.00
2016-09-01 23:30:00,0,32427,0,0.00,0,0,0,0,22367,50000,6992,31221,0,0,0,0,0.00,0.00,0.00,0.00
2016-09-01 23:40:00,0,39797,0,0.00,0,0,0,0,22719,50000,9411,38341,0,0,0,0,0.00,0.00,0.00,0.00
2016-09-01 23:50:00,0,39109,0,0.00,0,0,0,0,29606,50000,7410,36493,0,0,0,0,0.00,0.00,0.00,0.00
